Location: Unspecified
(0.0000°N, 0.0000°E)
Time: 12:46:07
(UTC+00:00)

N. Korean satellite - Pass Details

Date: 13 December 2017
Orbit: 461 x 513 km, 97.2° (Epoch: 16 December)

Event Time Altitude Azimuth Distance (km) Brightness Sun altitude
Rises 18:24:20 0° 171° (S) 2,540 10.4 -6.9°
Reaches altitude 10° 18:26:23 10° 172° (S) 1,667 9.5 -7.3°
Maximum altitude 18:29:58 81° 257° (WSW) 500 6.7 -8.2°
Drops below altitude 10° 18:33:36 10° 347° (NNW) 1,689 9.2 -9.0°
Sets 18:35:41 0° 348° (NNW) 2,577 10.1 -9.5°
